Погода в Нью-Йорке

США     40°42′57″N   74°00′10″W
темп.,
°C
ветер,
м/с
пор.,
м/с
влажн.,
%
обл.,
%
осадки,
мм/ч
давл.,
гПа
погр.,
м
6 мая, чт
чт623:00+12сз612727 0.0 1010984
02:00+11сз612590 0.0 10111094
05:00+9сз612700 0.0 1012812
08:00+11сз69535 0.0 10151165
11:00+13ссз79385 0.0 10151382
14:00+17сз56297 0.0 10141723
17:00+18ссз552796 0.0 10131937
20:00+16ссз4532100 0.0 10141188
7 мая, пт
пт723:00+14с463974 0.0 1015574
02:00+12ссв2440100 0.0 1014279
05:00+11ссв35495 0.0 1013286
08:00+12всв344622 0.0 1013472
11:00+16юв444074 0.0 10121414
14:00+16ююв5541100 0.0 10101348
17:00+14юв6745100 0.0 10101190
20:00+12вюв5752100 0.0 1010879
8 мая, сб
сб823:00+11вюв3556100 0.0 1009788
02:00+11всв3353100 0.0 1008742
05:00+10всв3455100 0.0 1008636
08:00+10всв2346100 0.0 1009854
11:00+13с1234100 0.0 10101776
14:00+11зсз4358100 0.3 10101287
17:00+11зсз6762100 0.3 10111312
20:00+10сз6116614 0.3 1013899
9 мая, вс
вс923:00+9сз412685 0.0 1015849
02:00+8зсз412720 0.0 1015533
05:00+8з49700 0.0 1016418
08:00+10зсз46540 0.0 1017432
11:00+15з46334 0.0 10171842
14:00+18зюз6825100 0.0 10152594
17:00+18зюз7728100 0.0 10142242
20:00+16юз6742100 0.0 10151444
10 мая, пн
пн1023:00+11ююз5782100 0.8 1014557
02:00+11ююз3489100 3.1 1012474
05:00+11юв3591100 4.2 1009446
08:00+11юв4792100 5.0 1008466
11:00+12ююв3592100 1.4 1007377
14:00+16з0282100 1.6 1006335
17:00+14в3594100 5.3 1001247
20:00+13ссз489498 14.4 1006399